ND5T-1 Weather Reports


time (UTC)temp
F
wind
direction
speed
knots
gust
knots
rain 1hr
in
rain 24hr
in
rain mn
in
humidity
%
barometer
mb
20260510022340 73 159 0.0 8.7 0.00 0.01 0.01 86 1011.2
20260510021317 75 71 0.0 4.3 0.00 0.01 0.01 81 1011.2
20260510020336 77 100 1.7 5.2 0.00 0.01 0.01 78 1010.6
20260510015327 78 150 0.9 4.3 0.00 0.01 0.01 75 1010.6
20260510014331 79 71 1.7 4.3 0.00 0.01 0.01 73 1010.4
20260510013333 80 65 0.0 1.7 0.00 0.01 0.01 85 1009.8
20260510012333 81 209 0.0 0.0 0.00 0.01 0.01 85 1009.3
20260510011317 81 209 0.0 0.0 0.00 0.01 0.01 86 1009.0
20260510010321 81 11 0.0 0.0 0.00 0.01 0.01 86 1009.1
20260510005330 81 10 0.0 0.0 0.00 0.01 0.01 86 1008.9
20260510004328 81 10 0.0 0.0 0.00 0.01 0.01 86 1008.6
20260510003329 81 10 0.0 0.0 0.00 0.01 0.01 85 1008.5
20260510002351 82 10 0.0 0.0 0.00 0.01 0.01 84 1008.4
20260510001333 82 10 0.0 0.0 0.00 0.01 0.01 84 1008.4
20260510000333 82 10 0.0 0.0 0.00 0.01 0.01 84 1008.3
20260509235329 83 10 0.0 0.0 0.00 0.08 0.01 84 1008.2
20260509234330 83 10 0.0 0.9 0.00 0.08 0.01 82 1008.3
20260509233329 83 271 0.0 0.0 0.00 0.08 0.01 81 1008.3
20260509232329 84 271 0.0 0.0 0.00 0.08 0.01 80 1008.3
20260509231328 84 270 0.0 0.0 0.00 0.08 0.01 78 1008.2
20260509230326 85 270 0.0 0.0 0.00 0.08 0.01 76 1008.2
20260509225317 85 270 0.0 0.0 0.00 0.08 0.01 77 1008.2
20260509224338 85 270 0.0 0.0 0.00 0.08 0.01 74 1008.2
20260509223334 85 270 0.0 0.0 0.00 0.08 0.01 73 1008.1
20260509222317 85 270 0.0 0.0 0.00 0.08 0.01 76 1007.9
20260509221356 85 270 0.0 0.0 0.00 0.08 0.01 74 1008.0
20260509220335 86 270 0.0 0.9 0.00 0.08 0.01 74 1007.9
20260509215327 85 270 0.0 0.0 0.00 0.08 0.01 74 1007.9
20260509214329 86 270 0.0 0.0 0.00 0.08 0.01 73 1008.0
20260509213330 86 159 0.0 0.0 0.00 0.08 0.01 71 1007.9
20260509212329 87 159 0.0 0.0 0.00 0.08 0.01 70 1008.0
20260509211332 88 159 0.0 0.0 0.00 0.08 0.01 69 1008.1
20260509210331 88 159 0.0 0.9 0.00 0.08 0.01 69 1008.2
20260509205321 88 159 0.0 0.9 0.00 0.08 0.01 69 1008.3
20260509204322 88 128 0.0 0.9 0.00 0.08 0.01 72 1008.5
20260509203320 88 128 0.0 0.9 0.00 0.08 0.01 72 1008.4
20260509202321 87 128 0.0 0.9 0.00 0.08 0.01 71 1008.6
20260509201322 87 128 0.0 0.9 0.00 0.08 0.01 73 1008.8
20260509200342 86 181 0.0 0.9 0.00 0.08 0.01 72 1008.9
20260509195329 86 167 0.0 1.7 0.00 0.08 0.01 75 1009.1
20260509194326 85 167 0.0 0.9 0.00 0.08 0.01 80 1009.2
20260509193325 84 150 0.0 1.7 0.00 0.08 0.01 79 1009.4
20260509192341 83 151 0.0 0.0 0.00 0.08 0.01 82 1009.4
20260509191341 83 151 0.0 0.0 0.00 0.08 0.01 84 1009.5
20260509190319 83 150 0.0 0.9 0.00 0.08 0.01 82 1009.6
20260509185329 82 150 0.0 0.9 0.00 0.08 0.01 84 1009.9
20260509184329 82 150 0.0 1.7 0.00 0.08 0.01 86 1009.9
20260509183329 81 150 0.0 0.0 0.00 0.08 0.01 86 1010.0
20260509182329 81 150 0.0 0.0 0.00 0.08 0.01 87 1010.1
20260509181330 81 150 0.0 0.0 0.00 0.08 0.01 86 1010.3
20260509180336 81 150 0.0 0.9 0.00 0.08 0.01 84 1010.5
20260509175326 80 202 0.0 1.7 0.00 0.08 0.01 88 1010.6
20260509174327 80 178 0.0 0.0 0.00 0.08 0.01 90 1010.6
20260509173327 79 178 0.0 0.9 0.00 0.08 0.01 90 1010.7
20260509172325 79 178 0.0 2.6 0.00 0.08 0.01 91 1010.7
20260509171323 78 73 0.0 0.9 0.00 0.08 0.01 92 1010.5
20260509170324 77 73 0.0 0.9 0.00 0.08 0.01 93 1010.5
20260509165332 77 73 0.0 0.0 0.00 0.08 0.01 94 1010.6
20260509164333 77 73 0.0 0.0 0.00 0.08 0.01 95 1010.5
20260509163334 76 73 0.0 0.0 0.00 0.08 0.01 95 1010.6
20260509162332 76 73 0.0 0.0 0.00 0.08 0.01 96 1010.8
20260509161329 76 76 0.0 0.9 0.00 0.08 0.01 96 1010.9
20260509160332 76 76 0.0 0.0 0.00 0.08 0.01 97 1010.9
20260509155320 75 123 0.0 0.0 0.00 0.08 0.01 96 1010.9
20260509154319 75 123 0.0 0.9 0.00 0.08 0.01 97 1010.8
20260509153320 75 122 0.0 0.0 0.00 0.08 0.01 97 1011.1
20260509152322 75 122 0.0 0.0 0.00 0.08 0.01 97 1011.0
20260509151325 75 122 0.0 0.0 0.00 0.08 0.01 97 1011.0
20260509150345 74 135 0.0 0.0 0.00 0.08 0.01 97 1010.9
20260509145330 74 135 0.0 0.0 0.00 0.08 0.01 97 1010.9
20260509144330 74 135 0.0 0.0 0.00 0.08 0.01 97 1010.9
20260509143331 74 135 0.0 0.0 0.00 0.08 0.01 97 1010.7
20260509142327 74 135 0.0 0.0 0.00 0.08 0.01 97 1010.6
20260509141349 74 135 0.0 0.0 0.00 0.08 0.01 97 1010.3
20260509140350 74 135 0.0 0.0 0.00 0.08 0.01 97 1010.1
20260509135339 74 135 0.0 0.0 0.00 0.08 0.01 97 1010.6
20260509134317 74 135 0.0 0.0 0.00 0.08 0.01 97 1010.9
20260509133319 74 136 0.0 0.0 0.00 0.08 0.01 97 1010.8
20260509132340 74 136 0.0 0.0 0.00 0.08 0.01 97 1010.9
20260509131317 73 136 0.0 0.0 0.00 0.08 0.01 97 1010.9
20260509130318 73 136 0.0 0.0 0.00 0.08 0.01 97 1010.9
20260509125325 73 136 0.0 0.0 0.00 0.08 0.01 97 1010.9
20260509124349 73 136 0.0 0.0 0.00 0.08 0.01 97 1010.9
20260509123323 73 136 0.0 0.0 0.00 0.08 0.01 97 1011.0
20260509122324 73 115 0.0 0.0 0.00 0.08 0.01 97 1010.9
20260509121356 73 115 0.0 0.0 0.00 0.08 0.01 97 1010.6
20260509120320 73 115 0.0 0.0 0.00 0.08 0.01 97 1010.4
20260509115334 72 117 0.0 0.0 0.00 0.08 0.01 97 1010.2
20260509114334 72 117 0.0 0.0 0.00 0.08 0.01 97 1010.1
20260509113356 72 117 0.0 0.0 0.00 0.08 0.01 97 1010.0
20260509112318 72 115 0.0 0.0 0.00 0.08 0.01 97 1010.3
20260509111316 72 115 0.0 0.0 0.00 0.08 0.01 97 1010.2
20260509110316 72 115 0.0 0.0 0.00 0.08 0.01 97 1010.2
20260509105328 72 115 0.0 0.0 0.00 0.08 0.01 97 1010.4
20260509104332 72 115 0.0 0.0 0.00 0.08 0.01 96 1010.6
20260509103352 72 115 0.0 0.0 0.00 0.08 0.01 96 1010.5
20260509102335 72 115 0.0 0.0 0.00 0.08 0.01 96 1010.3
20260509101335 72 115 0.0 0.0 0.00 0.08 0.01 96 1009.7
20260509100336 72 115 0.0 0.0 0.00 0.08 0.01 96 1009.7
20260509095324 72 115 0.0 0.0 0.00 0.08 0.01 96 1009.5
20260509094324 72 115 0.0 0.0 0.00 0.08 0.01 96 1009.7
20260509093326 72 115 0.0 0.0 0.00 0.08 0.01 96 1009.8
20260509092323 72 115 0.0 0.0 0.00 0.08 0.01 96 1010.1
20260509091325 72 115 0.0 0.0 0.00 0.08 0.01 96 1010.0
20260509090344 72 115 0.0 0.0 0.00 0.08 0.01 96 1010.1
20260509085317 72 115 0.0 0.0 0.00 0.08 0.01 96 1010.0
20260509084317 72 115 0.0 0.0 0.00 0.08 0.01 96 1010.0
20260509083337 72 115 0.0 0.0 0.01 0.08 0.01 96 1010.0
20260509082318 72 115 0.0 0.0 0.01 0.08 0.01 96 1010.0
20260509081318 72 115 0.0 0.0 0.01 0.08 0.01 96 1010.0
20260509080318 72 115 0.0 0.0 0.01 0.08 0.01 96 1009.9
20260509075331 72 115 0.0 0.0 0.01 0.08 0.01 96 1010.0
20260509074333 72 115 0.0 0.0 0.01 0.08 0.01 96 1010.2
20260509073328 72 115 0.0 0.0 0.00 0.07 0.00 96 1010.3
20260509072326 72 115 0.0 0.0 0.00 0.07 0.00 96 1010.2
20260509071327 72 115 0.0 0.0 0.00 0.07 0.00 96 1010.2
20260509070328 72 115 0.0 0.0 0.00 0.07 0.00 96 1010.4
20260509065320 72 115 0.0 0.0 0.00 0.07 0.00 96 1010.4
20260509064323 72 115 0.0 0.0 0.00 0.07 0.00 96 1010.2
20260509063326 72 115 0.0 0.0 0.00 0.07 0.00 96 1010.4
20260509062330 72 115 0.0 0.0 0.00 0.07 0.00 96 1010.3
20260509061329 72 115 0.0 0.0 0.00 0.07 0.00 96 1010.5
20260509060327 72 115 0.0 0.0 0.00 0.07 0.00 96 1010.6
20260509055318 72 115 0.0 0.0 0.00 0.07 0.00 96 1010.6
20260509054322 72 115 0.0 0.0 0.00 0.07 0.00 96 1010.8
20260509053323 72 115 0.0 0.0 0.00 0.07 0.00 96 1010.7
20260509052318 72 115 0.0 0.0 0.00 0.07 0.00 96 1010.7
20260509051321 72 115 0.0 0.9 0.00 0.07 0.00 96 1010.8
20260509050324 72 115 0.0 0.0 0.00 0.07 0.00 96 1010.8
20260509045324 72 115 0.0 0.0 0.00 0.07 0.07 96 1010.8
20260509044326 72 115 0.0 0.0 0.00 0.07 0.07 96 1010.8
20260509043348 72 115 0.0 0.0 0.00 0.07 0.07 96 1010.7
20260509042330 72 115 0.0 0.0 0.00 0.07 0.07 96 1010.7
20260509041332 71 115 0.0 0.0 0.00 0.07 0.07 96 1010.8
20260509040330 71 115 0.0 0.0 0.00 0.07 0.07 96 1010.7
20260509035322 71 115 0.0 0.0 0.00 0.07 0.07 96 1010.6
20260509034320 71 115 0.0 0.0 0.00 0.07 0.07 96 1010.5
20260509033343 71 115 0.0 0.0 0.00 0.07 0.07 96 1010.4
20260509032323 71 115 0.0 1.7 0.00 0.07 0.07 95 1010.4
20260509031326 71 115 0.0 0.9 0.00 0.07 0.07 95 1010.2
20260509030328 72 115 0.0 1.7 0.00 0.07 0.07 95 1010.3
20260509025324 72 120 0.0 0.0 0.00 0.07 0.07 96 1010.2
20260509024324 72 120 0.0 0.0 0.00 0.07 0.07 96 1010.3
20260509023320 72 120 0.0 0.0 0.00 0.07 0.07 95 1010.0